Year,Month,Day,Hour,Minute,Value (Times are PST for barometer in hPa)
2013,09,28,00,00,1007.55
2013,09,28,00,01,1007.54
2013,09,28,00,02,1007.45
2013,09,28,00,03,1007.48
2013,09,28,00,04,1007.42
2013,09,28,00,05,1007.42
2013,09,28,00,06,1007.38
2013,09,28,00,07,1007.35
2013,09,28,00,08,1007.38
2013,09,28,00,09,1007.37
2013,09,28,00,10,1007.28
2013,09,28,00,11,1007.25
2013,09,28,00,12,1007.25
2013,09,28,00,13,1007.28
2013,09,28,00,14,1007.25
2013,09,28,00,15,1007.28
2013,09,28,00,16,1007.21
2013,09,28,00,17,1007.21
2013,09,28,00,18,1007.15
2013,09,28,00,19,1007.18
2013,09,28,00,20,1007.18
2013,09,28,00,21,1007.15
2013,09,28,00,22,1007.11
2013,09,28,00,23,1007.08
2013,09,28,00,24,1007.08
2013,09,28,00,25,1007.08
2013,09,28,00,26,1007.15
2013,09,28,00,27,1007.15
2013,09,28,00,28,1007.11
2013,09,28,00,29,1007.15
2013,09,28,00,30,1007.18
2013,09,28,00,31,1007.11
2013,09,28,00,32,1007.11
2013,09,28,00,33,1007.11
2013,09,28,00,34,1007.08
2013,09,28,00,35,1007.11
2013,09,28,00,36,1007.04
2013,09,28,00,37,1007.01
2013,09,28,00,38,1006.98
2013,09,28,00,39,1007.01
2013,09,28,00,40,1006.98
2013,09,28,00,41,1006.97
2013,09,28,00,42,1006.88
2013,09,28,00,43,1006.91
2013,09,28,00,44,1006.88
2013,09,28,00,45,1006.84
2013,09,28,00,46,1006.84
2013,09,28,00,47,1006.88
2013,09,28,00,48,1006.81
2013,09,28,00,49,1006.81
2013,09,28,00,50,1006.88
2013,09,28,00,51,1006.84
2013,09,28,00,52,1006.77
2013,09,28,00,53,1006.77
2013,09,28,00,54,1006.77
2013,09,28,00,55,1006.74
2013,09,28,00,56,1006.71
2013,09,28,00,57,1006.71
2013,09,28,00,58,1006.74
2013,09,28,00,59,1006.76
2013,09,28,01,00,1006.67
2013,09,28,01,01,1006.66
2013,09,28,01,02,1006.60
2013,09,28,01,03,1006.57
2013,09,28,01,04,1006.60
2013,09,28,01,05,1006.57
2013,09,28,01,06,1006.57
2013,09,28,01,07,1006.54
2013,09,28,01,08,1006.47
2013,09,28,01,09,1006.44
2013,09,28,01,10,1006.37
2013,09,28,01,11,1006.37
2013,09,28,01,12,1006.37
2013,09,28,01,13,1006.33
2013,09,28,01,14,1006.33
2013,09,28,01,15,1006.27
2013,09,28,01,16,1006.33
2013,09,28,01,17,1006.29
2013,09,28,01,18,1006.23
2013,09,28,01,19,1006.27
2013,09,28,01,20,1006.22
2013,09,28,01,21,1006.16
2013,09,28,01,22,1006.10
2013,09,28,01,23,1006.16
2013,09,28,01,24,1006.16
2013,09,28,01,25,1006.13
2013,09,28,01,26,1006.10
2013,09,28,01,27,1006.10
2013,09,28,01,28,1006.13
2013,09,28,01,29,1006.09
2013,09,28,01,30,1006.03
2013,09,28,01,31,1005.96
2013,09,28,01,32,1005.99
2013,09,28,01,33,1005.93
2013,09,28,01,34,1005.93
2013,09,28,01,35,1005.93
2013,09,28,01,36,1005.89
2013,09,28,01,37,1005.89
2013,09,28,01,38,1005.89
2013,09,28,01,39,1005.86
2013,09,28,01,40,1005.86
2013,09,28,01,41,1005.83
2013,09,28,01,42,1005.83
2013,09,28,01,43,1005.79
2013,09,28,01,44,1005.86
2013,09,28,01,45,1005.82
2013,09,28,01,46,1005.76
2013,09,28,01,47,1005.70
2013,09,28,01,48,1005.79
2013,09,28,01,49,1005.76
2013,09,28,01,50,1005.76
2013,09,28,01,51,1005.72
2013,09,28,01,52,1005.79
2013,09,28,01,53,1005.76
2013,09,28,01,54,1005.72
2013,09,28,01,55,1005.66
2013,09,28,01,56,1005.69
2013,09,28,01,57,1005.69
2013,09,28,01,58,1005.66
2013,09,28,01,59,1005.65
2013,09,28,02,00,1005.59
2013,09,28,02,01,1005.56
2013,09,28,02,02,1005.62
2013,09,28,02,03,1005.59
2013,09,28,02,04,1005.55
2013,09,28,02,05,1005.59
2013,09,28,02,06,1005.55
2013,09,28,02,07,1005.55
2013,09,28,02,08,1005.52
2013,09,28,02,09,1005.49
2013,09,28,02,10,1005.52
2013,09,28,02,11,1005.52
2013,09,28,02,12,1005.51
2013,09,28,02,13,1005.42
2013,09,28,02,14,1005.39
2013,09,28,02,15,1005.45
2013,09,28,02,16,1005.41
2013,09,28,02,17,1005.36
2013,09,28,02,18,1005.41
2013,09,28,02,19,1005.35
2013,09,28,02,20,1005.34
2013,09,28,02,21,1005.28
2013,09,28,02,22,1005.32
2013,09,28,02,23,1005.32
2013,09,28,02,24,1005.28
2013,09,28,02,25,1005.28
2013,09,28,02,26,1005.25
2013,09,28,02,27,1005.27
2013,09,28,02,28,1005.18
2013,09,28,02,29,1005.18
2013,09,28,02,30,1005.15
2013,09,28,02,31,1005.11
2013,09,28,02,32,1005.11
2013,09,28,02,33,1005.11
2013,09,28,02,34,1005.14
2013,09,28,02,35,1005.08
2013,09,28,02,36,1005.01
2013,09,28,02,37,1005.05
2013,09,28,02,38,1005.08
2013,09,28,02,39,1005.00
2013,09,28,02,40,1004.89
2013,09,28,02,41,1004.98
2013,09,28,02,42,1004.97
2013,09,28,02,43,1004.91
2013,09,28,02,44,1004.95
2013,09,28,02,45,1004.98
2013,09,28,02,46,1004.97
2013,09,28,02,47,1004.91
2013,09,28,02,48,1004.84
2013,09,28,02,49,1004.81
2013,09,28,02,50,1004.74
2013,09,28,02,51,1004.78
2013,09,28,02,52,1004.73
2013,09,28,02,53,1004.67
2013,09,28,02,54,1004.64
2013,09,28,02,55,1004.61
2013,09,28,02,56,1004.57
2013,09,28,02,57,1004.57
2013,09,28,02,58,1004.56
2013,09,28,02,59,1004.47
2013,09,28,03,00,1004.44
2013,09,28,03,01,1004.50
2013,09,28,03,02,1004.46
2013,09,28,03,03,1004.40
2013,09,28,03,04,1004.37
2013,09,28,03,05,1004.34
2013,09,28,03,06,1004.30
2013,09,28,03,07,1004.23
2013,09,28,03,08,1004.23
2013,09,28,03,09,1004.17
2013,09,28,03,10,1004.13
2013,09,28,03,11,1004.10
2013,09,28,03,12,1004.06
2013,09,28,03,13,1004.06
2013,09,28,03,14,1004.13
2013,09,28,03,15,1004.00
2013,09,28,03,16,1004.03
2013,09,28,03,17,1004.10
2013,09,28,03,18,1004.00
2013,09,28,03,19,1003.93
2013,09,28,03,20,1003.90
2013,09,28,03,21,1003.76
2013,09,28,03,22,1003.76
2013,09,28,03,23,1003.76
2013,09,28,03,24,1003.73
2013,09,28,03,25,1003.73
2013,09,28,03,26,1003.79
2013,09,28,03,27,1003.76
2013,09,28,03,28,1003.62
2013,09,28,03,29,1003.66
2013,09,28,03,30,1003.66
2013,09,28,03,31,1003.66
2013,09,28,03,32,1003.62
2013,09,28,03,33,1003.59
2013,09,28,03,34,1003.59
2013,09,28,03,35,1003.59
2013,09,28,03,36,1003.56
2013,09,28,03,37,1003.49
2013,09,28,03,38,1003.49
2013,09,28,03,39,1003.46
2013,09,28,03,40,1003.46
2013,09,28,03,41,1003.42
2013,09,28,03,42,1003.46
2013,09,28,03,43,1003.39
2013,09,28,03,44,1003.39
2013,09,28,03,45,1003.32
2013,09,28,03,46,1003.25
2013,09,28,03,47,1003.25
2013,09,28,03,48,1003.22
2013,09,28,03,49,1003.18
2013,09,28,03,50,1003.12
2013,09,28,03,51,1003.12
2013,09,28,03,52,1003.08
2013,09,28,03,53,1003.05
2013,09,28,03,54,1003.05
2013,09,28,03,55,1003.08
2013,09,28,03,56,1003.08
2013,09,28,03,57,1003.05
2013,09,28,03,58,1003.08
2013,09,28,03,59,1003.08
2013,09,28,04,00,1003.01
2013,09,28,04,01,1002.98
2013,09,28,04,02,1002.91
2013,09,28,04,03,1002.88
2013,09,28,04,04,1002.95
2013,09,28,04,05,1002.95
2013,09,28,04,06,1002.98
2013,09,28,04,07,1002.95
2013,09,28,04,08,1002.95
2013,09,28,04,09,1002.91
2013,09,28,04,10,1002.85
2013,09,28,04,11,1002.81
2013,09,28,04,12,1002.81
2013,09,28,04,13,1002.81
2013,09,28,04,14,1002.78
2013,09,28,04,15,1002.64
2013,09,28,04,16,1002.74
2013,09,28,04,17,1002.71
2013,09,28,04,18,1002.71
2013,09,28,04,19,1002.64
2013,09,28,04,20,1002.61
2013,09,28,04,21,1002.64
2013,09,28,04,22,1002.61
2013,09,28,04,23,1002.54
2013,09,28,04,24,1002.51
2013,09,28,04,25,1002.51
2013,09,28,04,26,1002.47
2013,09,28,04,27,1002.44
2013,09,28,04,28,1002.44
2013,09,28,04,29,1002.44
2013,09,28,04,30,1002.47
2013,09,28,04,31,1002.41
2013,09,28,04,32,1002.41
2013,09,28,04,33,1002.27
2013,09,28,04,34,1002.30
2013,09,28,04,35,1002.27
2013,09,28,04,36,1002.20
2013,09,28,04,37,1002.17
2013,09,28,04,38,1002.13
2013,09,28,04,39,1002.13
2013,09,28,04,40,1002.13
2013,09,28,04,41,1002.07
2013,09,28,04,42,1002.07
2013,09,28,04,43,1002.10
2013,09,28,04,44,1002.03
2013,09,28,04,45,1002.03
2013,09,28,04,46,1001.97
2013,09,28,04,47,1001.93
2013,09,28,04,48,1001.97
2013,09,28,04,49,1001.90
2013,09,28,04,50,1001.86
2013,09,28,04,51,1001.86
2013,09,28,04,52,1001.83
2013,09,28,04,53,1001.80
2013,09,28,04,54,1001.73
2013,09,28,04,55,1001.73
2013,09,28,04,56,1001.69
2013,09,28,04,57,1001.73
2013,09,28,04,58,1001.69
2013,09,28,04,59,1001.63
2013,09,28,05,00,1001.69
2013,09,28,05,01,1001.63
2013,09,28,05,02,1001.63
2013,09,28,05,03,1001.63
2013,09,28,05,04,1001.63
2013,09,28,05,05,1001.59
2013,09,28,05,06,1001.56
2013,09,28,05,07,1001.49
2013,09,28,05,08,1001.46
2013,09,28,05,09,1001.39
2013,09,28,05,10,1001.42
2013,09,28,05,11,1001.39
2013,09,28,05,12,1001.36
2013,09,28,05,13,1001.25
2013,09,28,05,14,1001.19
2013,09,28,05,15,1001.19
2013,09,28,05,16,1001.19
2013,09,28,05,17,1001.15
2013,09,28,05,18,1001.12
2013,09,28,05,19,1001.08
2013,09,28,05,20,1001.08
2013,09,28,05,21,1000.98
2013,09,28,05,22,1001.05
2013,09,28,05,23,1000.98
2013,09,28,05,24,1000.98
2013,09,28,05,25,1000.88
2013,09,28,05,26,1000.85
2013,09,28,05,27,1000.81
2013,09,28,05,28,1000.78
2013,09,28,05,29,1000.78
2013,09,28,05,30,1000.75
2013,09,28,05,31,1000.64
2013,09,28,05,32,1000.61
2013,09,28,05,33,1000.58
2013,09,28,05,34,1000.54
2013,09,28,05,35,1000.44
2013,09,28,05,36,1000.51
2013,09,28,05,37,1000.54
2013,09,28,05,38,1000.48
2013,09,28,05,39,1000.44
2013,09,28,05,40,1000.37
2013,09,28,05,41,1000.37
2013,09,28,05,42,1000.34
2013,09,28,05,43,1000.20
2013,09,28,05,44,1000.20
2013,09,28,05,45,1000.17
2013,09,28,05,46,1000.10
2013,09,28,05,47,1000.10
2013,09,28,05,48,1000.14
2013,09,28,05,49,1000.10
2013,09,28,05,50,1000.07
2013,09,28,05,51,1000.03
2013,09,28,05,52,1000.03
2013,09,28,05,53,1000.03
2013,09,28,05,54,999.97
2013,09,28,05,55,999.97
2013,09,28,05,56,1000.00
2013,09,28,05,57,1000.00
2013,09,28,05,58,1000.00
2013,09,28,05,59,999.97
2013,09,28,06,00,999.93
2013,09,28,06,01,999.93
2013,09,28,06,02,1000.03
2013,09,28,06,03,1000.07
2013,09,28,06,04,1000.03
2013,09,28,06,05,1000.07
2013,09,28,06,06,1000.10
2013,09,28,06,07,1000.10
2013,09,28,06,08,1000.10
2013,09,28,06,09,1000.07
2013,09,28,06,10,1000.00
2013,09,28,06,11,1000.00
2013,09,28,06,12,999.87
2013,09,28,06,13,999.90
2013,09,28,06,14,999.87
2013,09,28,06,15,999.90
2013,09,28,06,16,999.87
2013,09,28,06,17,999.76
2013,09,28,06,18,999.80
2013,09,28,06,19,999.80
2013,09,28,06,20,999.79
2013,09,28,06,21,999.66
2013,09,28,06,22,999.66
2013,09,28,06,23,999.56
2013,09,28,06,24,999.63
2013,09,28,06,25,999.63
2013,09,28,06,26,999.46
2013,09,28,06,27,999.32
2013,09,28,06,28,999.39
2013,09,28,06,29,999.49
2013,09,28,06,30,999.49
2013,09,28,06,31,999.46
2013,09,28,06,32,999.46
2013,09,28,06,33,999.43
2013,09,28,06,34,999.39
2013,09,28,06,35,999.43
2013,09,28,06,36,999.32
2013,09,28,06,37,999.29
2013,09,28,06,38,999.19
2013,09,28,06,39,999.26
2013,09,28,06,40,999.22
2013,09,28,06,41,999.22
2013,09,28,06,42,999.12
2013,09,28,06,43,999.15
2013,09,28,06,44,999.12
2013,09,28,06,45,999.02
2013,09,28,06,46,999.02
2013,09,28,06,47,999.05
2013,09,28,06,48,999.02
2013,09,28,06,49,998.92
2013,09,28,06,50,998.82
2013,09,28,06,51,998.71
2013,09,28,06,52,998.88
2013,09,28,06,53,998.95
2013,09,28,06,54,998.88
2013,09,28,06,55,998.82
2013,09,28,06,56,998.75
2013,09,28,06,57,998.75
2013,09,28,06,58,998.75
2013,09,28,06,59,998.82
2013,09,28,07,00,998.75
2013,09,28,07,01,998.54
2013,09,28,07,02,998.49
2013,09,28,07,03,998.68
2013,09,28,07,04,998.71
2013,09,28,07,05,998.61
2013,09,28,07,06,998.51
2013,09,28,07,07,998.44
2013,09,28,07,08,998.38
2013,09,28,07,09,998.31
2013,09,28,07,10,998.21
2013,09,28,07,11,998.14
2013,09,28,07,12,998.10
2013,09,28,07,13,998.14
2013,09,28,07,14,998.10
2013,09,28,07,15,998.10
2013,09,28,07,16,998.04
2013,09,28,07,17,998.04
2013,09,28,07,18,998.00
2013,09,28,07,19,998.00
2013,09,28,07,20,998.00
2013,09,28,07,21,997.90
2013,09,28,07,22,997.80
2013,09,28,07,23,997.90
2013,09,28,07,24,998.00
2013,09,28,07,25,997.94
2013,09,28,07,26,997.97
2013,09,28,07,27,997.90
2013,09,28,07,28,997.79
2013,09,28,07,29,997.66
2013,09,28,07,30,997.66
2013,09,28,07,31,997.66
2013,09,28,07,32,997.77
2013,09,28,07,33,997.80
2013,09,28,07,34,997.70
2013,09,28,07,35,997.66
2013,09,28,07,36,997.60
2013,09,28,07,37,997.63
2013,09,28,07,38,997.66
2013,09,28,07,39,997.60
2013,09,28,07,40,997.60
2013,09,28,07,41,997.53
2013,09,28,07,42,997.50
2013,09,28,07,43,997.46
2013,09,28,07,44,997.36
2013,09,28,07,45,997.39
2013,09,28,07,46,997.33
2013,09,28,07,47,997.26
2013,09,28,07,48,997.26
2013,09,28,07,49,997.22
2013,09,28,07,50,997.22
2013,09,28,07,51,997.19
2013,09,28,07,52,997.16
2013,09,28,07,53,997.09
2013,09,28,07,54,997.05
2013,09,28,07,55,997.05
2013,09,28,07,56,997.02
2013,09,28,07,57,997.02
2013,09,28,07,58,997.02
2013,09,28,07,59,997.02
2013,09,28,08,00,996.95
2013,09,28,08,01,996.99
2013,09,28,08,02,996.92
2013,09,28,08,03,996.89
2013,09,28,08,04,996.92
2013,09,28,08,05,996.95
2013,09,28,08,06,997.02
2013,09,28,08,07,996.95
2013,09,28,08,08,996.85
2013,09,28,08,09,996.85
2013,09,28,08,10,996.89
2013,09,28,08,11,996.92
2013,09,28,08,12,996.92
2013,09,28,08,13,996.85
2013,09,28,08,14,996.75
2013,09,28,08,15,996.72
2013,09,28,08,16,996.72
2013,09,28,08,17,996.75
2013,09,28,08,18,996.65
2013,09,28,08,19,996.65
2013,09,28,08,20,996.58
2013,09,28,08,21,996.55
2013,09,28,08,22,996.48
2013,09,28,08,23,996.41
2013,09,28,08,24,996.41
2013,09,28,08,25,996.51
2013,09,28,08,26,996.41
2013,09,28,08,27,996.38
2013,09,28,08,28,996.31
2013,09,28,08,29,996.34
2013,09,28,08,30,996.31
2013,09,28,08,31,996.38
2013,09,28,08,32,996.34
2013,09,28,08,33,996.34
2013,09,28,08,34,996.28
2013,09,28,08,35,996.21
2013,09,28,08,36,996.21
2013,09,28,08,37,996.21
2013,09,28,08,38,996.21
2013,09,28,08,39,996.14
2013,09,28,08,40,996.07
2013,09,28,08,41,996.01
2013,09,28,08,42,995.94
2013,09,28,08,43,995.94
2013,09,28,08,44,995.87
2013,09,28,08,45,995.84
2013,09,28,08,46,995.87
2013,09,28,08,47,995.84
2013,09,28,08,48,995.84
2013,09,28,08,49,995.84
2013,09,28,08,50,995.80
2013,09,28,08,51,995.77
2013,09,28,08,52,995.70
2013,09,28,08,53,995.73
2013,09,28,08,54,995.70
2013,09,28,08,55,995.70
2013,09,28,08,56,995.63
2013,09,28,08,57,995.60
2013,09,28,08,58,995.63
2013,09,28,08,59,995.53
2013,09,28,09,00,995.50
2013,09,28,09,01,995.50
2013,09,28,09,02,995.53
2013,09,28,09,03,995.56
2013,09,28,09,04,995.46
2013,09,28,09,05,995.50
2013,09,28,09,06,995.46
2013,09,28,09,07,995.40
2013,09,28,09,08,995.36
2013,09,28,09,09,995.29
2013,09,28,09,10,995.29
2013,09,28,09,11,995.26
2013,09,28,09,12,995.23
2013,09,28,09,13,995.19
2013,09,28,09,14,995.12
2013,09,28,09,15,995.09
2013,09,28,09,16,995.09
2013,09,28,09,17,995.06
2013,09,28,09,18,995.09
2013,09,28,09,19,995.02
2013,09,28,09,20,994.89
2013,09,28,09,21,994.99
2013,09,28,09,22,994.99
2013,09,28,09,23,994.92
2013,09,28,09,24,994.89
2013,09,28,09,25,994.79
2013,09,28,09,26,994.82
2013,09,28,09,27,994.82
2013,09,28,09,28,994.75
2013,09,28,09,29,994.72
2013,09,28,09,30,994.72
2013,09,28,09,31,994.68
2013,09,28,09,32,994.68
2013,09,28,09,33,994.65
2013,09,28,09,34,994.62
2013,09,28,09,35,994.52
2013,09,28,09,36,994.55
2013,09,28,09,37,994.62
2013,09,28,09,38,994.62
2013,09,28,09,39,994.52
2013,09,28,09,40,994.58
2013,09,28,09,41,994.62
2013,09,28,09,42,994.58
2013,09,28,09,43,994.62
2013,09,28,09,44,994.55
2013,09,28,09,45,994.58
2013,09,28,09,46,994.45
2013,09,28,09,47,994.52
2013,09,28,09,48,994.48
2013,09,28,09,49,994.48
2013,09,28,09,50,994.45
2013,09,28,09,51,994.45
2013,09,28,09,52,994.45
2013,09,28,09,53,994.35
2013,09,28,09,54,994.35
2013,09,28,09,55,994.38
2013,09,28,09,56,994.38
2013,09,28,09,57,994.38
2013,09,28,09,58,994.35
2013,09,28,09,59,994.35
2013,09,28,10,00,994.31
2013,09,28,10,01,994.21
2013,09,28,10,02,994.24
2013,09,28,10,03,994.24
2013,09,28,10,04,994.18
2013,09,28,10,05,994.28
2013,09,28,10,06,994.28
2013,09,28,10,07,994.18
2013,09,28,10,08,994.14
2013,09,28,10,09,994.14
2013,09,28,10,10,994.11
2013,09,28,10,11,994.11
2013,09,28,10,12,994.07
2013,09,28,10,13,994.07
2013,09,28,10,14,994.11
2013,09,28,10,15,994.14
2013,09,28,10,16,994.07
2013,09,28,10,17,994.11
2013,09,28,10,18,994.01
2013,09,28,10,19,993.97
2013,09,28,10,20,993.94
2013,09,28,10,21,993.94
2013,09,28,10,22,993.94
2013,09,28,10,23,993.91
2013,09,28,10,24,993.87
2013,09,28,10,25,993.84
2013,09,28,10,26,993.80
2013,09,28,10,27,993.84
2013,09,28,10,28,993.80
2013,09,28,10,29,993.80
2013,09,28,10,30,993.74
2013,09,28,10,31,993.67
2013,09,28,10,32,993.70
2013,09,28,10,33,993.67
2013,09,28,10,34,993.63
2013,09,28,10,35,993.63
2013,09,28,10,36,993.60
2013,09,28,10,37,993.57
2013,09,28,10,38,993.57
2013,09,28,10,39,993.57
2013,09,28,10,40,993.36
2013,09,28,10,41,993.30
2013,09,28,10,42,993.40
2013,09,28,10,43,993.33
2013,09,28,10,44,993.33
2013,09,28,10,45,993.30
2013,09,28,10,46,993.23
2013,09,28,10,47,993.16
2013,09,28,10,48,993.16
2013,09,28,10,49,993.06
2013,09,28,10,50,993.06
2013,09,28,10,51,993.02
2013,09,28,10,52,992.79
2013,09,28,10,53,992.92
2013,09,28,10,54,992.89
2013,09,28,10,55,992.86
2013,09,28,10,56,992.89
2013,09,28,10,57,992.82
2013,09,28,10,58,992.72
2013,09,28,10,59,992.65
2013,09,28,11,00,992.69
2013,09,28,11,01,992.58
2013,09,28,11,02,992.55
2013,09,28,11,03,992.55
2013,09,28,11,04,992.48
2013,09,28,11,05,992.42
2013,09,28,11,06,992.38
2013,09,28,11,07,992.38
2013,09,28,11,08,992.35
2013,09,28,11,09,992.28
2013,09,28,11,10,992.35
2013,09,28,11,11,992.31
2013,09,28,11,12,992.21
2013,09,28,11,13,992.21
2013,09,28,11,14,992.14
2013,09,28,11,15,992.14
2013,09,28,11,16,992.14
2013,09,28,11,17,992.08
2013,09,28,11,18,992.14
2013,09,28,11,19,992.14
2013,09,28,11,20,992.01
2013,09,28,11,21,992.01
2013,09,28,11,22,992.01
2013,09,28,11,23,991.98
2013,09,28,11,24,991.91
2013,09,28,11,25,991.87
2013,09,28,11,26,991.81
2013,09,28,11,27,991.74
2013,09,28,11,28,991.74
2013,09,28,11,29,991.70
2013,09,28,11,30,991.67
2013,09,28,11,31,991.67
2013,09,28,11,32,991.64
2013,09,28,11,33,991.57
2013,09,28,11,34,991.50
2013,09,28,11,35,991.47
2013,09,28,11,36,991.50
2013,09,28,11,37,991.43
2013,09,28,11,38,991.50
2013,09,28,11,39,991.31
2013,09,28,11,40,991.57
2013,09,28,11,41,991.47
2013,09,28,11,42,991.57
2013,09,28,11,43,991.53
2013,09,28,11,44,991.67
2013,09,28,11,45,991.70
2013,09,28,11,46,991.64
2013,09,28,11,47,991.60
2013,09,28,11,48,991.67
2013,09,28,11,49,991.64
2013,09,28,11,50,991.60
2013,09,28,11,51,991.60
2013,09,28,11,52,991.60
2013,09,28,11,53,991.73
2013,09,28,11,54,991.60
2013,09,28,11,55,991.60
2013,09,28,11,56,991.74
2013,09,28,11,57,991.60
2013,09,28,11,58,991.43
2013,09,28,11,59,991.37
2013,09,28,12,00,991.33
2013,09,28,12,01,991.37
2013,09,28,12,02,991.30
2013,09,28,12,03,991.26
2013,09,28,12,04,991.13
2013,09,28,12,05,991.06
2013,09,28,12,06,991.03
2013,09,28,12,07,990.89
2013,09,28,12,08,991.03
2013,09,28,12,09,990.93
2013,09,28,12,10,990.86
2013,09,28,12,11,990.86
2013,09,28,12,12,990.82
2013,09,28,12,13,990.76
2013,09,28,12,14,990.89
2013,09,28,12,15,990.76
2013,09,28,12,16,990.72
2013,09,28,12,17,990.59
2013,09,28,12,18,990.52
2013,09,28,12,19,990.55
2013,09,28,12,20,990.49
2013,09,28,12,21,990.59
2013,09,28,12,22,990.62
2013,09,28,12,23,990.38
2013,09,28,12,24,990.42
2013,09,28,12,25,990.52
2013,09,28,12,26,990.38
2013,09,28,12,27,990.38
2013,09,28,12,28,990.35
2013,09,28,12,29,990.32
2013,09,28,12,30,990.28
2013,09,28,12,31,990.25
2013,09,28,12,32,990.21
2013,09,28,12,33,990.15
2013,09,28,12,34,990.08
2013,09,28,12,35,990.01
2013,09,28,12,36,989.98
2013,09,28,12,37,990.08
2013,09,28,12,38,989.94
2013,09,28,12,39,990.04
2013,09,28,12,40,989.94
2013,09,28,12,41,989.94
2013,09,28,12,42,990.04
2013,09,28,12,43,989.91
2013,09,28,12,44,989.94
2013,09,28,12,45,990.04
2013,09,28,12,46,989.88
2013,09,28,12,47,989.91
2013,09,28,12,48,989.88
2013,09,28,12,49,989.98
2013,09,28,12,50,989.84
2013,09,28,12,51,989.84
2013,09,28,12,52,989.77
2013,09,28,12,53,989.91
2013,09,28,12,54,989.88
2013,09,28,12,55,989.84
2013,09,28,12,56,989.74
2013,09,28,12,57,989.71
2013,09,28,12,58,989.77
2013,09,28,12,59,989.67
2013,09,28,13,00,989.60
2013,09,28,13,01,989.47
2013,09,28,13,02,989.37
2013,09,28,13,03,989.47
2013,09,28,13,04,989.20
2013,09,28,13,05,989.27
2013,09,28,13,06,989.13
2013,09,28,13,07,989.13
2013,09,28,13,08,989.05
2013,09,28,13,09,988.89
2013,09,28,13,10,988.79
2013,09,28,13,11,988.69
2013,09,28,13,12,988.69
2013,09,28,13,13,988.62
2013,09,28,13,14,988.49
2013,09,28,13,15,988.32
2013,09,28,13,16,988.28
2013,09,28,13,17,988.15
2013,09,28,13,18,988.11
2013,09,28,13,19,988.01
2013,09,28,13,20,987.89
2013,09,28,13,21,988.11
2013,09,28,13,22,987.91
2013,09,28,13,23,987.98
2013,09,28,13,24,987.91
2013,09,28,13,25,987.95
2013,09,28,13,26,988.05
2013,09,28,13,27,988.00
2013,09,28,13,28,987.84
2013,09,28,13,29,987.82
2013,09,28,13,30,988.05
2013,09,28,13,31,987.84
2013,09,28,13,32,987.91
2013,09,28,13,33,987.78
2013,09,28,13,34,987.78
2013,09,28,13,35,987.84
2013,09,28,13,36,987.95
2013,09,28,13,37,987.84
2013,09,28,13,38,987.64
2013,09,28,13,39,987.81
2013,09,28,13,40,987.88
2013,09,28,13,41,987.91
2013,09,28,13,42,987.91
2013,09,28,13,43,987.88
2013,09,28,13,44,987.81
2013,09,28,13,45,987.74
2013,09,28,13,46,987.51
2013,09,28,13,47,987.51
2013,09,28,13,48,987.57
2013,09,28,13,49,987.57
2013,09,28,13,50,987.51
2013,09,28,13,51,987.44
2013,09,28,13,52,987.40
2013,09,28,13,53,987.34
2013,09,28,13,54,987.40
2013,09,28,13,55,987.35
2013,09,28,13,56,987.54
2013,09,28,13,57,987.30
2013,09,28,13,58,987.34
2013,09,28,13,59,987.57
2013,09,28,14,00,987.51
2013,09,28,14,01,987.64
2013,09,28,14,02,987.67
2013,09,28,14,03,987.61
2013,09,28,14,04,987.67
2013,09,28,14,05,987.54
2013,09,28,14,06,987.54
2013,09,28,14,07,987.54
2013,09,28,14,08,987.64
2013,09,28,14,09,987.51
2013,09,28,14,10,987.47
2013,09,28,14,11,987.51
2013,09,28,14,12,987.67
2013,09,28,14,13,987.64
2013,09,28,14,14,987.64
2013,09,28,14,15,987.57
2013,09,28,14,16,987.61
2013,09,28,14,17,987.61
2013,09,28,14,18,987.57
2013,09,28,14,19,987.64
2013,09,28,14,20,987.64
2013,09,28,14,21,987.71
2013,09,28,14,22,987.67
2013,09,28,14,23,987.57
2013,09,28,14,24,987.54
2013,09,28,14,25,987.54
2013,09,28,14,26,987.54
2013,09,28,14,27,987.47
2013,09,28,14,28,987.44
2013,09,28,14,29,987.44
2013,09,28,14,30,987.47
2013,09,28,14,31,987.51
2013,09,28,14,32,987.44
2013,09,28,14,33,987.51
2013,09,28,14,34,987.54
2013,09,28,14,35,987.51
2013,09,28,14,36,987.47
2013,09,28,14,37,987.44
2013,09,28,14,38,987.37
2013,09,28,14,39,987.40
2013,09,28,14,40,987.44
2013,09,28,14,41,987.47
2013,09,28,14,42,987.57
2013,09,28,14,43,987.54
2013,09,28,14,44,987.61
2013,09,28,14,45,987.67
2013,09,28,14,46,987.64
2013,09,28,14,47,987.71
2013,09,28,14,48,987.67
2013,09,28,14,49,987.71
2013,09,28,14,50,987.67
2013,09,28,14,51,987.57
2013,09,28,14,52,987.51
2013,09,28,14,53,987.54
2013,09,28,14,54,987.61
2013,09,28,14,55,987.57
2013,09,28,14,56,987.74
2013,09,28,14,57,987.71
2013,09,28,14,58,987.84
2013,09,28,14,59,987.95
2013,09,28,15,00,987.98
2013,09,28,15,01,987.95
2013,09,28,15,02,988.01
2013,09,28,15,03,987.98
2013,09,28,15,04,988.01
2013,09,28,15,05,988.15
2013,09,28,15,06,988.18
2013,09,28,15,07,988.08
2013,09,28,15,08,988.07
2013,09,28,15,09,987.91
2013,09,28,15,10,987.88
2013,09,28,15,11,987.81
2013,09,28,15,12,987.78
2013,09,28,15,13,987.84
2013,09,28,15,14,987.88
2013,09,28,15,15,987.88
2013,09,28,15,16,987.98
2013,09,28,15,17,987.98
2013,09,28,15,18,988.01
2013,09,28,15,19,988.05
2013,09,28,15,20,988.08
2013,09,28,15,21,988.15
2013,09,28,15,22,988.25
2013,09,28,15,23,988.25
2013,09,28,15,24,988.35
2013,09,28,15,25,988.32
2013,09,28,15,26,988.25
2013,09,28,15,27,988.22
2013,09,28,15,28,988.22
2013,09,28,15,29,988.15
2013,09,28,15,30,988.15
2013,09,28,15,31,988.15
2013,09,28,15,32,988.22
2013,09,28,15,33,988.25
2013,09,28,15,34,988.35
2013,09,28,15,35,988.49
2013,09,28,15,36,988.55
2013,09,28,15,37,988.59
2013,09,28,15,38,988.62
2013,09,28,15,39,988.73
2013,09,28,15,40,988.89
2013,09,28,15,41,989.06
2013,09,28,15,42,989.06
2013,09,28,15,43,989.13
2013,09,28,15,44,989.13
2013,09,28,15,45,989.10
2013,09,28,15,46,989.10
2013,09,28,15,47,989.03
2013,09,28,15,48,989.03
2013,09,28,15,49,989.13
2013,09,28,15,50,989.10
2013,09,28,15,51,989.16
2013,09,28,15,52,989.13
2013,09,28,15,53,989.06
2013,09,28,15,54,989.10
2013,09,28,15,55,989.06
2013,09,28,15,56,989.06
2013,09,28,15,57,989.13
2013,09,28,15,58,989.06
2013,09,28,15,59,989.16
2013,09,28,16,00,989.20
2013,09,28,16,01,989.28
2013,09,28,16,02,989.44
2013,09,28,16,03,989.54
2013,09,28,16,04,989.64
2013,09,28,16,05,989.67
2013,09,28,16,06,989.60
2013,09,28,16,07,989.54
2013,09,28,16,08,989.57
2013,09,28,16,09,989.64
2013,09,28,16,10,989.74
2013,09,28,16,11,989.77
2013,09,28,16,12,989.74
2013,09,28,16,13,989.77
2013,09,28,16,14,989.84
2013,09,28,16,15,989.81
2013,09,28,16,16,989.67
2013,09,28,16,17,989.67
2013,09,28,16,18,989.84
2013,09,28,16,19,989.98
2013,09,28,16,20,990.01